User: anonymous   Login
Location: Unspecified
(0.0000°N, 0.0000°E)
Time: 17:54:15
(UTC+00:00)
Language:

STARLINK-1025 - Orbit

View from above orbital plane
View from above orbital plane
View from above satellite
View from above satellite

Ground track
Ground track

The orbit data is extracted from the following two-line orbital elements,

1 44730C 19074T   21025.39789684  .00001773  00000-0  12143-3 0   255
2 44730  52.9993 298.1949 0002116  74.1014 262.8467 15.05585826    17
Epoch (UTC): 25 January 2021 09:32:58
Eccentricity: 0.0002116
inclination: 52.9993°
perigee height: 548 km
apogee height: 551 km
right ascension of ascending node: 298.1949°
argument of perigee: 74.1014°
revolutions per day: 15.05585826
mean anomaly at epoch: 262.8467°
orbit number at epoch: 1

The dashed part of the orbit path shows where the satellite is in the earth's shadow,  

DLR